Погода в Кондрыкине

Россия / Нижегородская область     54°54′59″N   45°02′17″E
темп.,
°C
ветер,
м/с
пор.,
м/с
влажн.,
%
обл.,
%
осадки,
мм/ч
давл.,
гПа
погр.,
м
8 мая, сб
сб800:00+5ю0090100 0.0 101710
03:00+4ссв00895 0.0 101710
06:00+6вюв238514 0.0 101792
09:00+11в45635 0.0 1017838
12:00+14вюв455686 0.0 10151355
15:00+13юв6769100 0.1 10141183
18:00+13юв698096 0.1 1011577
21:00+10ююв4894100 0.1 1011148
9 мая, вс
вс900:00+10ююв5118498 0.0 1009219
03:00+11ююв71575100 0.2 1008393
06:00+11ююв61477100 0.1 1008492
09:00+15ю71173100 0.1 1008683
12:00+16ю61071100 0.0 10081259
15:00+12з4798100 2.4 1008375
18:00+9юз4892100 3.7 1013537
21:00+7з4694100 4.2 1016358
10 мая, пн
пн1000:00+5сз4893100 0.0 1017460
03:00+5сз4893100 0.1 1020570
06:00+6ссз5991100 0.0 1022679
09:00+6с5990100 0.1 1024607
12:00+9ссв6878100 0.0 1025810
15:00+10ссв687493 0.0 1026918
18:00+10св5976100 0.0 1027848
21:00+6св41193100 0.0 1028296
11 мая, вт
вт1100:00+6св51389100 0.0 1029376
03:00+5св5139123 0.0 1029334
06:00+6св61387100 0.0 1030393
09:00+11св7972100 0.0 1030520
12:00+15всв6862100 0.0 1029730
15:00+17всв6862100 0.0 1029856
18:00+15всв5874100 0.0 1029410
21:00+11всв410875 0.0 1029170
12 мая, ср
ср1200:00+10всв412825 0.0 1029211
03:00+9всв411805 0.0 1028189
06:00+11всв5128112 0.0 1029275
09:00+17в6970100 0.0 1028480
12:00+21в686142 0.0 1028987
15:00+21в686291 0.1 10261405
18:00+19в5107374 0.3 1026457
21:00+14в4118357 0.3 1026228